Weather History for Westerly, RI

Change the Weather History Date:

Saturday, March 9, 2013

  Actual Average (KGON) Record (KGON)
Temperature  
Mean Temperature 43 °F -  
Max Temperature 54 °F 43 °F 60 °F (1973)
Min Temperature 30 °F 24 °F 8 °F (2007)
Degree Days  
Heating Degree Days 22    
Moisture  
Dew Point 20 °F    
Average Humidity 46    
Maximum Humidity 85    
Minimum Humidity 20    
Precipitation  
Precipitation 0.00 in - - ()
Sea Level Pressure  
Sea Level Pressure 30.21 in    
Wind  
Wind Speed 11 mph (NNE)    
Max Wind Speed 17 mph    
Max Gust Speed 25 mph    
Visibility 10 miles    
Events      
Averages and records for this station are not official NWS values.
T = Trace of Precipitation, MM = Missing Value Source: NWS Daily Summary

Daily Weather History Graph

Daily Weather History Graph

Search for Another Location

Airport:

Trip Planner

Search our weather history database for the weather conditions in past years. The results will help you decide how hot, cold, wet, or windy it might be!

Date:

Astronomy

Mar. 09, 2013 Rise Set
Actual Time 6:08 AM EST 5:47 PM EST
Civil Twilight 5:41 AM EST 6:14 PM EST
Nautical Twilight 5:09 AM EST 6:47 PM EST
Astronomical Twilight 4:36 AM EST 7:19 PM EST
Moon 4:31 AM EST (3/9) 3:45 PM EST (3/9)
Length of Visible Light 12h 33m
Length of Day
11h 38m
Waning Crescent, 5% of the Moon is Illuminated
Mar 9
Waning Crescent
Mar 11
New
Mar 19
First Quarter
Mar 27
Full
Apr 3
Last Quarter

Hourly Weather History & Observations

Time (EST) Temp. Windchill Dew Point Humidity Pressure Visibility Wind Dir Wind Speed Gust Speed Precip Events Conditions
12:53 AM 39.0 °F 31.8 °F 18.0 °F 43% 30.10 in 10.0 mi North 11.5 mph 20.7 mph N/A   Clear
1:53 AM 39.0 °F 29.9 °F 19.0 °F 45% 30.11 in 10.0 mi North 17.3 mph 25.3 mph N/A   Clear
2:53 AM 37.9 °F 30.9 °F 17.1 °F 43% 30.11 in 10.0 mi North 10.4 mph 18.4 mph N/A   Clear
3:53 AM 37.0 °F 28.5 °F 15.1 °F 41% 30.11 in 10.0 mi North 13.8 mph 21.9 mph N/A   Clear
4:53 AM 37.0 °F 28.9 °F 17.1 °F 44% 30.13 in 10.0 mi North 12.7 mph 20.7 mph N/A   Clear
5:53 AM 36.0 °F 27.5 °F 18.0 °F 48% 30.15 in 10.0 mi North 12.7 mph 23.0 mph N/A   Clear
6:53 AM 36.0 °F 28.5 °F 18.0 °F 48% 30.17 in 10.0 mi North 10.4 mph 19.6 mph N/A   Clear
7:53 AM 37.9 °F 30.5 °F 18.0 °F 45% 30.19 in 10.0 mi North 11.5 mph 21.9 mph N/A   Clear
8:53 AM 41.0 °F 33.5 °F 18.0 °F 40% 30.19 in 10.0 mi North 13.8 mph 24.2 mph N/A   Clear
9:53 AM 44.1 °F 37.7 °F 17.1 °F 34% 30.20 in 10.0 mi North 12.7 mph 21.9 mph N/A   Clear
10:53 AM 46.0 °F 41.0 °F 16.0 °F 30% 30.21 in 10.0 mi NNE 10.4 mph 19.6 mph N/A   Clear
11:53 AM 50.0 °F - 18.0 °F 28% 30.21 in 10.0 mi NNE 8.1 mph 18.4 mph N/A   Clear
12:53 PM 52.0 °F - 18.0 °F 26% 30.20 in 10.0 mi NNW 9.2 mph - N/A   Clear
1:53 PM 53.1 °F - 15.1 °F 22% 30.20 in 10.0 mi NNE 10.4 mph 19.6 mph N/A   Clear
2:53 PM 53.1 °F - 12.0 °F 20% 30.19 in 10.0 mi NE 9.2 mph 21.9 mph N/A   Clear
3:53 PM 54.0 °F - 16.0 °F 22% 30.21 in 10.0 mi North 8.1 mph - N/A   Clear
4:53 PM 52.0 °F - 14.0 °F 22% 30.24 in 10.0 mi NNE 8.1 mph - N/A   Clear
5:53 PM 43.0 °F 38.8 °F 26.1 °F 51% 30.26 in 10.0 mi ESE 6.9 mph - N/A   Clear
6:53 PM 39.9 °F 33.9 °F 26.1 °F 58% 30.29 in 10.0 mi ENE 9.2 mph - N/A   Clear
7:53 PM 37.0 °F 32.4 °F 28.0 °F 70% 30.31 in 10.0 mi ENE 5.8 mph - N/A   Clear
8:53 PM 35.1 °F 32.2 °F 28.0 °F 76% 30.32 in 10.0 mi NE 3.5 mph - N/A   Clear
9:53 PM 34.0 °F 29.8 °F 27.0 °F 75% 30.32 in 10.0 mi NE 4.6 mph - N/A   Clear
10:53 PM 32.0 °F 27.5 °F 27.0 °F 82% 30.32 in 10.0 mi NE 4.6 mph - N/A   Clear
11:53 PM 30.9 °F - 27.0 °F 85% 30.34 in 10.0 mi Calm Calm - N/A   Clear